owner,sensor,date,latitude,longitude,sea_surface_height_above_sea_level,qcFlag 
TCOON,ioos:station:TCOON:518:1,2014-07-01T00:12:00Z,29.5150,-94.5133,4.466,1111122 
TCOON,ioos:station:TCOON:518:1,2014-07-01T01:12:00Z,29.5150,-94.5133,4.471,1111122 
TCOON,ioos:station:TCOON:518:1,2014-07-01T02:12:00Z,29.5150,-94.5133,4.474,1111122 
TCOON,ioos:station:TCOON:518:1,2014-07-01T03:12:00Z,29.5150,-94.5133,4.474,1111122 
TCOON,ioos:station:TCOON:518:1,2014-07-01T04:12:00Z,29.5150,-94.5133,4.475,1111122 
TCOON,ioos:station:TCOON:518:1,2014-07-01T05:12:00Z,29.5150,-94.5133,4.474,1111122 
TCOON,ioos:station:TCOON:518:1,2014-07-01T06:36:00Z,29.5150,-94.5133,4.475,1111122 
TCOON,ioos:station:TCOON:518:1,2014-07-01T07:12:00Z,29.5150,-94.5133,4.475,1111122 
TCOON,ioos:station:TCOON:518:1,2014-07-01T08:12:00Z,29.5150,-94.5133,4.474,1111122 
TCOON,ioos:station:TCOON:518:1,2014-07-01T09:12:00Z,29.5150,-94.5133,4.475,1111122 
TCOON,ioos:station:TCOON:518:1,2014-07-01T10:12:00Z,29.5150,-94.5133,4.475,1111122 
TCOON,ioos:station:TCOON:518:1,2014-07-01T11:12:00Z,29.5150,-94.5133,4.475,1111122 
TCOON,ioos:station:TCOON:518:1,2014-07-01T12:12:00Z,29.5150,-94.5133,4.475,1111122 
TCOON,ioos:station:TCOON:518:1,2014-07-01T13:12:00Z,29.5150,-94.5133,4.47,1111122 
TCOON,ioos:station:TCOON:518:1,2014-07-01T14:12:00Z,29.5150,-94.5133,4.467,1111122 
TCOON,ioos:station:TCOON:518:1,2014-07-01T15:12:00Z,29.5150,-94.5133,4.466,1111122 
TCOON,ioos:station:TCOON:518:1,2014-07-01T16:18:00Z,29.5150,-94.5133,-3.668,1111122 
TCOON,ioos:station:TCOON:518:1,2014-07-01T17:12:00Z,29.5150,-94.5133,4.463,1111122 
TCOON,ioos:station:TCOON:518:1,2014-07-01T18:12:00Z,29.5150,-94.5133,4.463,1111122 
TCOON,ioos:station:TCOON:518:1,2014-07-01T19:12:00Z,29.5150,-94.5133,4.463,1111122 
TCOON,ioos:station:TCOON:518:1,2014-07-01T20:06:00Z,29.5150,-94.5133,-3.557,1111122 
TCOON,ioos:station:TCOON:518:1,2014-07-02T00:12:00Z,29.5150,-94.5133,4.463,1111122 
TCOON,ioos:station:TCOON:518:1,2014-07-02T01:12:00Z,29.5150,-94.5133,4.468,1111122 
TCOON,ioos:station:TCOON:518:1,2014-07-02T02:12:00Z,29.5150,-94.5133,4.472,1111122 
TCOON,ioos:station:TCOON:518:1,2014-07-02T03:12:00Z,29.5150,-94.5133,4.473,1111122 
TCOON,ioos:station:TCOON:518:1,2014-07-02T04:12:00Z,29.5150,-94.5133,4.474,1111122 
TCOON,ioos:station:TCOON:518:1,2014-07-02T05:12:00Z,29.5150,-94.5133,4.475,1111122 
TCOON,ioos:station:TCOON:518:1,2014-07-02T06:42:00Z,29.5150,-94.5133,4.477,1111122 
TCOON,ioos:station:TCOON:518:1,2014-07-02T07:12:00Z,29.5150,-94.5133,4.477,1111122 
TCOON,ioos:station:TCOON:518:1,2014-07-02T08:12:00Z,29.5150,-94.5133,4.478,1111122 
TCOON,ioos:station:TCOON:518:1,2014-07-02T09:12:00Z,29.5150,-94.5133,4.476,1111122 
TCOON,ioos:station:TCOON:518:1,2014-07-02T10:12:00Z,29.5150,-94.5133,3.817,1111122 
TCOON,ioos:station:TCOON:518:1,2014-07-02T11:12:00Z,29.5150,-94.5133,2.993,1111122 
TCOON,ioos:station:TCOON:518:1,2014-07-02T12:12:00Z,29.5150,-94.5133,3.278,1111122 
TCOON,ioos:station:TCOON:518:1,2014-07-02T13:12:00Z,29.5150,-94.5133,4.47,1111122 
TCOON,ioos:station:TCOON:518:1,2014-07-02T14:12:00Z,29.5150,-94.5133,4.467,1111122 
TCOON,ioos:station:TCOON:518:1,2014-07-02T15:06:00Z,29.5150,-94.5133,4.465,1111122 
TCOON,ioos:station:TCOON:518:1,2014-07-02T16:12:00Z,29.5150,-94.5133,4.464,1111122 
TCOON,ioos:station:TCOON:518:1,2014-07-02T17:12:00Z,29.5150,-94.5133,4.461,1111122 
TCOON,ioos:station:TCOON:518:1,2014-07-02T18:12:00Z,29.5150,-94.5133,4.462,1111122 
TCOON,ioos:station:TCOON:518:1,2014-07-02T19:12:00Z,29.5150,-94.5133,1.468,1111122 
TCOON,ioos:station:TCOON:518:1,2014-07-02T20:12:00Z,29.5150,-94.5133,1.443,1111122 
TCOON,ioos:station:TCOON:518:1,2014-07-02T21:12:00Z,29.5150,-94.5133,1.414,1111122 
TCOON,ioos:station:TCOON:518:1,2014-07-02T22:12:00Z,29.5150,-94.5133,1.405,1111122 
TCOON,ioos:station:TCOON:518:1,2014-07-02T23:12:00Z,29.5150,-94.5133,1.358,1111122 
TCOON,ioos:station:TCOON:518:1,2014-07-03T00:12:00Z,29.5150,-94.5133,1.352,1111122 
TCOON,ioos:station:TCOON:518:1,2014-07-03T01:12:00Z,29.5150,-94.5133,1.343,1111122 
TCOON,ioos:station:TCOON:518:1,2014-07-03T02:12:00Z,29.5150,-94.5133,1.317,1111122 
TCOON,ioos:station:TCOON:518:1,2014-07-03T03:06:00Z,29.5150,-94.5133,1.31,1111122 
TCOON,ioos:station:TCOON:518:1,2014-07-03T04:12:00Z,29.5150,-94.5133,1.308,1111122 
TCOON,ioos:station:TCOON:518:1,2014-07-03T05:12:00Z,29.5150,-94.5133,1.282,1111122 
TCOON,ioos:station:TCOON:518:1,2014-07-03T06:12:00Z,29.5150,-94.5133,1.225,1111122 
TCOON,ioos:station:TCOON:518:1,2014-07-03T07:12:00Z,29.5150,-94.5133,1.232,1111122 
TCOON,ioos:station:TCOON:518:1,2014-07-03T08:12:00Z,29.5150,-94.5133,1.172,1111122 
TCOON,ioos:station:TCOON:518:1,2014-07-03T09:12:00Z,29.5150,-94.5133,1.164,1111122 
TCOON,ioos:station:TCOON:518:1,2014-07-03T10:12:00Z,29.5150,-94.5133,1.168,1111122 
TCOON,ioos:station:TCOON:518:1,2014-07-03T11:12:00Z,29.5150,-94.5133,1.207,1111122 
TCOON,ioos:station:TCOON:518:1,2014-07-03T12:12:00Z,29.5150,-94.5133,1.242,1111122 
TCOON,ioos:station:TCOON:518:1,2014-07-03T13:12:00Z,29.5150,-94.5133,1.261,1111122 
TCOON,ioos:station:TCOON:518:1,2014-07-03T14:12:00Z,29.5150,-94.5133,1.294,1111122 
TCOON,ioos:station:TCOON:518:1,2014-07-03T15:12:00Z,29.5150,-94.5133,1.347,1111122 
TCOON,ioos:station:TCOON:518:1,2014-07-03T16:12:00Z,29.5150,-94.5133,1.402,1111122 
TCOON,ioos:station:TCOON:518:1,2014-07-03T17:06:00Z,29.5150,-94.5133,1.418,1111122 
TCOON,ioos:station:TCOON:518:1,2014-07-03T18:12:00Z,29.5150,-94.5133,1.41,1111122 
TCOON,ioos:station:TCOON:518:1,2014-07-03T19:12:00Z,29.5150,-94.5133,1.386,1111122 
TCOON,ioos:station:TCOON:518:1,2014-07-03T20:12:00Z,29.5150,-94.5133,1.431,1111122 
TCOON,ioos:station:TCOON:518:1,2014-07-03T21:12:00Z,29.5150,-94.5133,1.423,1111122 
TCOON,ioos:station:TCOON:518:1,2014-07-03T22:12:00Z,29.5150,-94.5133,1.477,1111122 
TCOON,ioos:station:TCOON:518:1,2014-07-03T23:12:00Z,29.5150,-94.5133,1.261,1111122 
TCOON,ioos:station:TCOON:518:1,2014-07-04T00:12:00Z,29.5150,-94.5133,1.202,1111122 
TCOON,ioos:station:TCOON:518:1,2014-07-04T01:12:00Z,29.5150,-94.5133,1.184,1111122 
TCOON,ioos:station:TCOON:518:1,2014-07-04T02:12:00Z,29.5150,-94.5133,1.237,1111122 
TCOON,ioos:station:TCOON:518:1,2014-07-04T03:12:00Z,29.5150,-94.5133,1.258,1111122 
TCOON,ioos:station:TCOON:518:1,2014-07-04T04:12:00Z,29.5150,-94.5133,1.301,1111122 
TCOON,ioos:station:TCOON:518:1,2014-07-04T05:12:00Z,29.5150,-94.5133,1.315,1111122 
TCOON,ioos:station:TCOON:518:1,2014-07-04T06:36:00Z,29.5150,-94.5133,1.299,1111122 
TCOON,ioos:station:TCOON:518:1,2014-07-04T07:12:00Z,29.5150,-94.5133,1.279,1111122 
TCOON,ioos:station:TCOON:518:1,2014-07-04T08:12:00Z,29.5150,-94.5133,1.265,1111122 
TCOON,ioos:station:TCOON:518:1,2014-07-04T09:12:00Z,29.5150,-94.5133,1.184,1111122 
TCOON,ioos:station:TCOON:518:1,2014-07-04T10:12:00Z,29.5150,-94.5133,1.18,1111122 
TCOON,ioos:station:TCOON:518:1,2014-07-04T11:12:00Z,29.5150,-94.5133,1.228,1111122 
TCOON,ioos:station:TCOON:518:1,2014-07-04T12:12:00Z,29.5150,-94.5133,1.247,1111122 
TCOON,ioos:station:TCOON:518:1,2014-07-04T13:12:00Z,29.5150,-94.5133,1.269,1111122 
TCOON,ioos:station:TCOON:518:1,2014-07-04T14:12:00Z,29.5150,-94.5133,1.304,1111122 
TCOON,ioos:station:TCOON:518:1,2014-07-04T15:12:00Z,29.5150,-94.5133,1.333,1111122 
TCOON,ioos:station:TCOON:518:1,2014-07-04T16:12:00Z,29.5150,-94.5133,1.339,1111122 
TCOON,ioos:station:TCOON:518:1,2014-07-04T17:12:00Z,29.5150,-94.5133,1.362,1111122 
TCOON,ioos:station:TCOON:518:1,2014-07-04T18:12:00Z,29.5150,-94.5133,1.35,1111122 
TCOON,ioos:station:TCOON:518:1,2014-07-04T19:12:00Z,29.5150,-94.5133,1.302,1111122 
TCOON,ioos:station:TCOON:518:1,2014-07-04T20:12:00Z,29.5150,-94.5133,1.296,1111122 
TCOON,ioos:station:TCOON:518:1,2014-07-04T21:12:00Z,29.5150,-94.5133,1.284,1111122 
TCOON,ioos:station:TCOON:518:1,2014-07-04T22:12:00Z,29.5150,-94.5133,1.259,1111122 
TCOON,ioos:station:TCOON:518:1,2014-07-04T23:12:00Z,29.5150,-94.5133,1.244,1111122 
TCOON,ioos:station:TCOON:518:1,2014-07-05T00:12:00Z,29.5150,-94.5133,1.24,1111122 
TCOON,ioos:station:TCOON:518:1,2014-07-05T01:12:00Z,29.5150,-94.5133,1.239,1111122 
TCOON,ioos:station:TCOON:518:1,2014-07-05T02:12:00Z,29.5150,-94.5133,1.29,1111122 
TCOON,ioos:station:TCOON:518:1,2014-07-05T03:12:00Z,29.5150,-94.5133,1.327,1111122 
TCOON,ioos:station:TCOON:518:1,2014-07-05T04:06:00Z,29.5150,-94.5133,1.291,1111122 
TCOON,ioos:station:TCOON:518:1,2014-07-05T05:12:00Z,29.5150,-94.5133,1.275,1111122 
TCOON,ioos:station:TCOON:518:1,2014-07-05T06:12:00Z,29.5150,-94.5133,1.255,1111122 
TCOON,ioos:station:TCOON:518:1,2014-07-05T07:12:00Z,29.5150,-94.5133,1.271,1111122 
TCOON,ioos:station:TCOON:518:1,2014-07-05T08:12:00Z,29.5150,-94.5133,1.252,1111122 
TCOON,ioos:station:TCOON:518:1,2014-07-05T09:12:00Z,29.5150,-94.5133,1.27,1111122 
TCOON,ioos:station:TCOON:518:1,2014-07-05T10:12:00Z,29.5150,-94.5133,1.281,1111122 
TCOON,ioos:station:TCOON:518:1,2014-07-05T11:12:00Z,29.5150,-94.5133,1.298,1111122 
TCOON,ioos:station:TCOON:518:1,2014-07-05T12:12:00Z,29.5150,-94.5133,1.302,1111122 
TCOON,ioos:station:TCOON:518:1,2014-07-05T13:12:00Z,29.5150,-94.5133,1.298,1111122 
TCOON,ioos:station:TCOON:518:1,2014-07-05T14:12:00Z,29.5150,-94.5133,1.287,1111122 
TCOON,ioos:station:TCOON:518:1,2014-07-05T15:12:00Z,29.5150,-94.5133,1.365,1111122 
TCOON,ioos:station:TCOON:518:1,2014-07-05T16:12:00Z,29.5150,-94.5133,1.427,1111122 
TCOON,ioos:station:TCOON:518:1,2014-07-05T17:06:00Z,29.5150,-94.5133,1.458,1111122 
TCOON,ioos:station:TCOON:518:1,2014-07-05T18:12:00Z,29.5150,-94.5133,1.485,1111122 
TCOON,ioos:station:TCOON:518:1,2014-07-05T19:12:00Z,29.5150,-94.5133,1.52,1111122 
TCOON,ioos:station:TCOON:518:1,2014-07-05T20:12:00Z,29.5150,-94.5133,1.488,1111122 
TCOON,ioos:station:TCOON:518:1,2014-07-05T21:12:00Z,29.5150,-94.5133,1.484,1111122 
TCOON,ioos:station:TCOON:518:1,2014-07-05T22:12:00Z,29.5150,-94.5133,1.437,1111122 
TCOON,ioos:station:TCOON:518:1,2014-07-05T23:12:00Z,29.5150,-94.5133,1.39,1111122 
TCOON,ioos:station:TCOON:518:1,2014-07-06T00:12:00Z,29.5150,-94.5133,1.352,1111122 
TCOON,ioos:station:TCOON:518:1,2014-07-06T01:06:00Z,29.5150,-94.5133,1.326,1111122 
TCOON,ioos:station:TCOON:518:1,2014-07-06T02:12:00Z,29.5150,-94.5133,1.277,1111122 
TCOON,ioos:station:TCOON:518:1,2014-07-06T03:12:00Z,29.5150,-94.5133,1.258,1111122 
TCOON,ioos:station:TCOON:518:1,2014-07-06T04:12:00Z,29.5150,-94.5133,1.264,1111122 
TCOON,ioos:station:TCOON:518:1,2014-07-06T05:12:00Z,29.5150,-94.5133,1.311,1111122 
TCOON,ioos:station:TCOON:518:1,2014-07-06T06:36:00Z,29.5150,-94.5133,1.39,1111122 
TCOON,ioos:station:TCOON:518:1,2014-07-06T07:12:00Z,29.5150,-94.5133,1.367,1111122 
TCOON,ioos:station:TCOON:518:1,2014-07-06T08:12:00Z,29.5150,-94.5133,1.409,1111122 
TCOON,ioos:station:TCOON:518:1,2014-07-06T09:12:00Z,29.5150,-94.5133,1.427,1111122 
TCOON,ioos:station:TCOON:518:1,2014-07-06T10:12:00Z,29.5150,-94.5133,1.43,1111122 
TCOON,ioos:station:TCOON:518:1,2014-07-06T11:12:00Z,29.5150,-94.5133,1.417,1111122 
TCOON,ioos:station:TCOON:518:1,2014-07-06T12:12:00Z,29.5150,-94.5133,1.418,1111122 
TCOON,ioos:station:TCOON:518:1,2014-07-06T13:12:00Z,29.5150,-94.5133,1.403,1111122 
TCOON,ioos:station:TCOON:518:1,2014-07-06T14:12:00Z,29.5150,-94.5133,1.41,1111122 
TCOON,ioos:station:TCOON:518:1,2014-07-06T15:12:00Z,29.5150,-94.5133,1.426,1111122 
TCOON,ioos:station:TCOON:518:1,2014-07-06T16:12:00Z,29.5150,-94.5133,1.425,1111122 
TCOON,ioos:station:TCOON:518:1,2014-07-06T17:12:00Z,29.5150,-94.5133,1.432,1111122 
TCOON,ioos:station:TCOON:518:1,2014-07-06T18:06:00Z,29.5150,-94.5133,1.43,1111122 
TCOON,ioos:station:TCOON:518:1,2014-07-06T19:12:00Z,29.5150,-94.5133,1.495,1111122 
TCOON,ioos:station:TCOON:518:1,2014-07-06T20:12:00Z,29.5150,-94.5133,1.452,1111122 
TCOON,ioos:station:TCOON:518:1,2014-07-06T21:12:00Z,29.5150,-94.5133,1.389,1111122 
TCOON,ioos:station:TCOON:518:1,2014-07-06T22:12:00Z,29.5150,-94.5133,1.36,1111122 
TCOON,ioos:station:TCOON:518:1,2014-07-06T23:12:00Z,29.5150,-94.5133,1.297,1111122 
TCOON,ioos:station:TCOON:518:1,2014-07-07T00:12:00Z,29.5150,-94.5133,1.245,1111122 
TCOON,ioos:station:TCOON:518:1,2014-07-07T01:12:00Z,29.5150,-94.5133,1.204,1111122 
TCOON,ioos:station:TCOON:518:1,2014-07-07T02:12:00Z,29.5150,-94.5133,1.197,1111122 
TCOON,ioos:station:TCOON:518:1,2014-07-07T03:12:00Z,29.5150,-94.5133,1.201,1111122 
TCOON,ioos:station:TCOON:518:1,2014-07-07T04:12:00Z,29.5150,-94.5133,1.203,1111122 
TCOON,ioos:station:TCOON:518:1,2014-07-07T05:12:00Z,29.5150,-94.5133,1.243,1111122 
TCOON,ioos:station:TCOON:518:1,2014-07-07T06:12:00Z,29.5150,-94.5133,1.297,1111122 
TCOON,ioos:station:TCOON:518:1,2014-07-07T07:12:00Z,29.5150,-94.5133,1.373,1111122 
TCOON,ioos:station:TCOON:518:1,2014-07-07T08:12:00Z,29.5150,-94.5133,1.394,1111122 
TCOON,ioos:station:TCOON:518:1,2014-07-07T09:12:00Z,29.5150,-94.5133,1.426,1111122 
TCOON,ioos:station:TCOON:518:1,2014-07-07T10:12:00Z,29.5150,-94.5133,1.465,1111122 
TCOON,ioos:station:TCOON:518:1,2014-07-07T11:12:00Z,29.5150,-94.5133,1.491,1111122 
TCOON,ioos:station:TCOON:518:1,2014-07-07T12:12:00Z,29.5150,-94.5133,1.544,1111122 
TCOON,ioos:station:TCOON:518:1,2014-07-07T13:12:00Z,29.5150,-94.5133,1.51,1111122 
TCOON,ioos:station:TCOON:518:1,2014-07-07T14:12:00Z,29.5150,-94.5133,1.529,1111122 
TCOON,ioos:station:TCOON:518:1,2014-07-07T15:06:00Z,29.5150,-94.5133,1.505,1111122 
TCOON,ioos:station:TCOON:518:1,2014-07-07T16:12:00Z,29.5150,-94.5133,1.474,1111122 
TCOON,ioos:station:TCOON:518:1,2014-07-07T17:12:00Z,29.5150,-94.5133,1.473,1111122 
TCOON,ioos:station:TCOON:518:1,2014-07-07T18:12:00Z,29.5150,-94.5133,1.399,1111122 
TCOON,ioos:station:TCOON:518:1,2014-07-07T19:12:00Z,29.5150,-94.5133,1.41,1111122 
TCOON,ioos:station:TCOON:518:1,2014-07-07T20:06:00Z,29.5150,-94.5133,1.379,1111122 
TCOON,ioos:station:TCOON:518:1,2014-07-07T21:12:00Z,29.5150,-94.5133,1.33,1111122 
TCOON,ioos:station:TCOON:518:1,2014-07-07T22:12:00Z,29.5150,-94.5133,1.277,1111122 
TCOON,ioos:station:TCOON:518:1,2014-07-07T23:12:00Z,29.5150,-94.5133,1.229,1111122 
TCOON,ioos:station:TCOON:518:1,2014-07-08T00:12:00Z,29.5150,-94.5133,1.178,1111122 
TCOON,ioos:station:TCOON:518:1,2014-07-08T01:12:00Z,29.5150,-94.5133,1.133,1111122 
TCOON,ioos:station:TCOON:518:1,2014-07-08T02:12:00Z,29.5150,-94.5133,1.123,1111122 
TCOON,ioos:station:TCOON:518:1,2014-07-08T03:12:00Z,29.5150,-94.5133,1.11,1111122 
TCOON,ioos:station:TCOON:518:1,2014-07-08T04:12:00Z,29.5150,-94.5133,1.133,1111122 
TCOON,ioos:station:TCOON:518:1,2014-07-08T05:12:00Z,29.5150,-94.5133,1.155,1111122 
TCOON,ioos:station:TCOON:518:1,2014-07-08T06:12:00Z,29.5150,-94.5133,1.239,1111122 
TCOON,ioos:station:TCOON:518:1,2014-07-08T07:12:00Z,29.5150,-94.5133,1.318,1111122 
TCOON,ioos:station:TCOON:518:1,2014-07-08T08:12:00Z,29.5150,-94.5133,1.405,1111122 
TCOON,ioos:station:TCOON:518:1,2014-07-08T09:12:00Z,29.5150,-94.5133,1.477,1111122 
TCOON,ioos:station:TCOON:518:1,2014-07-08T10:12:00Z,29.5150,-94.5133,1.54,1111122 
TCOON,ioos:station:TCOON:518:1,2014-07-08T11:12:00Z,29.5150,-94.5133,1.534,1111122 
TCOON,ioos:station:TCOON:518:1,2014-07-08T12:12:00Z,29.5150,-94.5133,1.55,1111122 
TCOON,ioos:station:TCOON:518:1,2014-07-08T13:12:00Z,29.5150,-94.5133,1.545,1111122 
TCOON,ioos:station:TCOON:518:1,2014-07-08T14:12:00Z,29.5150,-94.5133,1.525,1111122 
TCOON,ioos:station:TCOON:518:1,2014-07-08T15:12:00Z,29.5150,-94.5133,1.494,1111122 
TCOON,ioos:station:TCOON:518:1,2014-07-08T16:06:00Z,29.5150,-94.5133,1.482,1111122 
TCOON,ioos:station:TCOON:518:1,2014-07-08T17:12:00Z,29.5150,-94.5133,1.473,1111122 
TCOON,ioos:station:TCOON:518:1,2014-07-08T18:06:00Z,29.5150,-94.5133,1.475,1111122 
TCOON,ioos:station:TCOON:518:1,2014-07-08T19:12:00Z,29.5150,-94.5133,1.48,1111122 
TCOON,ioos:station:TCOON:518:1,2014-07-08T20:12:00Z,29.5150,-94.5133,1.487,1111122 
TCOON,ioos:station:TCOON:518:1,2014-07-08T21:12:00Z,29.5150,-94.5133,1.429,1111122 
TCOON,ioos:station:TCOON:518:1,2014-07-08T22:12:00Z,29.5150,-94.5133,1.373,1111122 
TCOON,ioos:station:TCOON:518:1,2014-07-08T23:12:00Z,29.5150,-94.5133,1.314,1111122 
TCOON,ioos:station:TCOON:518:1,2014-07-09T00:12:00Z,29.5150,-94.5133,1.257,1111122 
TCOON,ioos:station:TCOON:518:1,2014-07-09T01:12:00Z,29.5150,-94.5133,1.185,1111122 
TCOON,ioos:station:TCOON:518:1,2014-07-09T02:12:00Z,29.5150,-94.5133,1.144,1111122 
TCOON,ioos:station:TCOON:518:1,2014-07-09T03:12:00Z,29.5150,-94.5133,1.111,1111122 
TCOON,ioos:station:TCOON:518:1,2014-07-09T04:12:00Z,29.5150,-94.5133,1.124,1111122 
TCOON,ioos:station:TCOON:518:1,2014-07-09T05:12:00Z,29.5150,-94.5133,1.081,1111122 
TCOON,ioos:station:TCOON:518:1,2014-07-09T06:12:00Z,29.5150,-94.5133,1.163,1111122 
TCOON,ioos:station:TCOON:518:1,2014-07-09T07:12:00Z,29.5150,-94.5133,1.234,1111122 
TCOON,ioos:station:TCOON:518:1,2014-07-09T08:12:00Z,29.5150,-94.5133,1.342,1111122 
TCOON,ioos:station:TCOON:518:1,2014-07-09T09:12:00Z,29.5150,-94.5133,1.404,1111122 
TCOON,ioos:station:TCOON:518:1,2014-07-09T10:12:00Z,29.5150,-94.5133,1.472,1111122 
TCOON,ioos:station:TCOON:518:1,2014-07-09T11:06:00Z,29.5150,-94.5133,1.476,1111122 
TCOON,ioos:station:TCOON:518:1,2014-07-09T12:12:00Z,29.5150,-94.5133,1.469,1111122 
TCOON,ioos:station:TCOON:518:1,2014-07-09T13:12:00Z,29.5150,-94.5133,1.456,1111122 
TCOON,ioos:station:TCOON:518:1,2014-07-09T14:18:00Z,29.5150,-94.5133,1.459,1111122 
TCOON,ioos:station:TCOON:518:1,2014-07-09T15:06:00Z,29.5150,-94.5133,1.461,1111122 
TCOON,ioos:station:TCOON:518:1,2014-07-09T16:06:00Z,29.5150,-94.5133,1.435,1111122 
TCOON,ioos:station:TCOON:518:1,2014-07-09T17:12:00Z,29.5150,-94.5133,1.457,1111122 
TCOON,ioos:station:TCOON:518:1,2014-07-09T18:12:00Z,29.5150,-94.5133,1.455,1111122 
TCOON,ioos:station:TCOON:518:1,2014-07-09T19:12:00Z,29.5150,-94.5133,1.445,1111122 
TCOON,ioos:station:TCOON:518:1,2014-07-09T20:12:00Z,29.5150,-94.5133,1.425,1111122 
TCOON,ioos:station:TCOON:518:1,2014-07-09T21:12:00Z,29.5150,-94.5133,1.423,1111122 
TCOON,ioos:station:TCOON:518:1,2014-07-09T22:12:00Z,29.5150,-94.5133,1.399,1111122 
TCOON,ioos:station:TCOON:518:1,2014-07-09T23:12:00Z,29.5150,-94.5133,1.317,1111122 
TCOON,ioos:station:TCOON:518:1,2014-07-10T00:12:00Z,29.5150,-94.5133,1.269,1111122 
TCOON,ioos:station:TCOON:518:1,2014-07-10T01:12:00Z,29.5150,-94.5133,1.198,1111122 
TCOON,ioos:station:TCOON:518:1,2014-07-10T02:12:00Z,29.5150,-94.5133,1.13,1111122 
TCOON,ioos:station:TCOON:518:1,2014-07-10T03:12:00Z,29.5150,-94.5133,1.093,1111122 
TCOON,ioos:station:TCOON:518:1,2014-07-10T04:12:00Z,29.5150,-94.5133,1.075,1111122 
TCOON,ioos:station:TCOON:518:1,2014-07-10T05:12:00Z,29.5150,-94.5133,1.039,1111122 
TCOON,ioos:station:TCOON:518:1,2014-07-10T06:12:00Z,29.5150,-94.5133,1.093,1111122 
TCOON,ioos:station:TCOON:518:1,2014-07-10T07:12:00Z,29.5150,-94.5133,1.168,1111122 
TCOON,ioos:station:TCOON:518:1,2014-07-10T08:06:00Z,29.5150,-94.5133,1.245,1111122 
TCOON,ioos:station:TCOON:518:1,2014-07-10T09:12:00Z,29.5150,-94.5133,1.338,1111122 
TCOON,ioos:station:TCOON:518:1,2014-07-10T10:12:00Z,29.5150,-94.5133,1.401,1111122 
TCOON,ioos:station:TCOON:518:1,2014-07-10T11:12:00Z,29.5150,-94.5133,1.438,1111122 
TCOON,ioos:station:TCOON:518:1,2014-07-10T12:12:00Z,29.5150,-94.5133,1.467,1111122 
TCOON,ioos:station:TCOON:518:1,2014-07-10T13:12:00Z,29.5150,-94.5133,1.473,1111122 
TCOON,ioos:station:TCOON:518:1,2014-07-10T14:12:00Z,29.5150,-94.5133,1.48,1111122 
TCOON,ioos:station:TCOON:518:1,2014-07-10T15:12:00Z,29.5150,-94.5133,1.489,1111122 
TCOON,ioos:station:TCOON:518:1,2014-07-10T16:06:00Z,29.5150,-94.5133,1.508,1111122 
TCOON,ioos:station:TCOON:518:1,2014-07-10T17:12:00Z,29.5150,-94.5133,1.554,1111122 
TCOON,ioos:station:TCOON:518:1,2014-07-10T18:12:00Z,29.5150,-94.5133,1.644,1111122 
TCOON,ioos:station:TCOON:518:1,2014-07-10T19:12:00Z,29.5150,-94.5133,1.64,1111122 
TCOON,ioos:station:TCOON:518:1,2014-07-10T20:12:00Z,29.5150,-94.5133,1.492,1111122 
TCOON,ioos:station:TCOON:518:1,2014-07-10T21:12:00Z,29.5150,-94.5133,1.45,1111122 
TCOON,ioos:station:TCOON:518:1,2014-07-10T22:12:00Z,29.5150,-94.5133,1.468,1111122 
TCOON,ioos:station:TCOON:518:1,2014-07-10T23:12:00Z,29.5150,-94.5133,1.391,1111122 
TCOON,ioos:station:TCOON:518:1,2014-07-11T00:12:00Z,29.5150,-94.5133,1.333,1111122 
TCOON,ioos:station:TCOON:518:1,2014-07-11T01:12:00Z,29.5150,-94.5133,1.239,1111122 
TCOON,ioos:station:TCOON:518:1,2014-07-11T03:12:00Z,29.5150,-94.5133,1.083,1111122 
TCOON,ioos:station:TCOON:518:1,2014-07-11T04:12:00Z,29.5150,-94.5133,1.065,1111122 
TCOON,ioos:station:TCOON:518:1,2014-07-11T05:12:00Z,29.5150,-94.5133,1.026,1111122 
TCOON,ioos:station:TCOON:518:1,2014-07-11T06:12:00Z,29.5150,-94.5133,0.978,1111122 
TCOON,ioos:station:TCOON:518:1,2014-07-11T07:12:00Z,29.5150,-94.5133,1.006,1111122 
TCOON,ioos:station:TCOON:518:1,2014-07-11T08:12:00Z,29.5150,-94.5133,1.098,1111122 
TCOON,ioos:station:TCOON:518:1,2014-07-11T09:12:00Z,29.5150,-94.5133,1.191,1111122 
TCOON,ioos:station:TCOON:518:1,2014-07-11T10:12:00Z,29.5150,-94.5133,1.272,1111122 
TCOON,ioos:station:TCOON:518:1,2014-07-11T11:12:00Z,29.5150,-94.5133,1.351,1111122 
TCOON,ioos:station:TCOON:518:1,2014-07-11T12:06:00Z,29.5150,-94.5133,1.394,1111122 
TCOON,ioos:station:TCOON:518:1,2014-07-11T13:12:00Z,29.5150,-94.5133,1.463,1111122 
TCOON,ioos:station:TCOON:518:1,2014-07-11T14:12:00Z,29.5150,-94.5133,1.455,1111122 
TCOON,ioos:station:TCOON:518:1,2014-07-11T15:12:00Z,29.5150,-94.5133,1.464,1111122 
TCOON,ioos:station:TCOON:518:1,2014-07-11T16:12:00Z,29.5150,-94.5133,1.478,1111122 
TCOON,ioos:station:TCOON:518:1,2014-07-11T17:12:00Z,29.5150,-94.5133,1.454,1111122 
TCOON,ioos:station:TCOON:518:1,2014-07-11T18:12:00Z,29.5150,-94.5133,1.457,1111122 
TCOON,ioos:station:TCOON:518:1,2014-07-11T19:12:00Z,29.5150,-94.5133,1.48,1111122 
TCOON,ioos:station:TCOON:518:1,2014-07-11T20:12:00Z,29.5150,-94.5133,1.44,1111122 
TCOON,ioos:station:TCOON:518:1,2014-07-11T21:12:00Z,29.5150,-94.5133,1.445,1111122 
TCOON,ioos:station:TCOON:518:1,2014-07-11T22:12:00Z,29.5150,-94.5133,1.432,1111122 
TCOON,ioos:station:TCOON:518:1,2014-07-11T23:12:00Z,29.5150,-94.5133,1.406,1111122 
TCOON,ioos:station:TCOON:518:1,2014-07-12T00:12:00Z,29.5150,-94.5133,1.354,1111122 
TCOON,ioos:station:TCOON:518:1,2014-07-12T01:12:00Z,29.5150,-94.5133,1.283,1111122 
TCOON,ioos:station:TCOON:518:1,2014-07-12T02:12:00Z,29.5150,-94.5133,1.212,1111122 
TCOON,ioos:station:TCOON:518:1,2014-07-12T03:12:00Z,29.5150,-94.5133,1.134,1111122 
TCOON,ioos:station:TCOON:518:1,2014-07-12T04:12:00Z,29.5150,-94.5133,1.085,1111122 
TCOON,ioos:station:TCOON:518:1,2014-07-12T05:12:00Z,29.5150,-94.5133,1.037,1111122 
TCOON,ioos:station:TCOON:518:1,2014-07-12T06:12:00Z,29.5150,-94.5133,0.999,1111122 
TCOON,ioos:station:TCOON:518:1,2014-07-12T07:12:00Z,29.5150,-94.5133,0.978,1111122 
TCOON,ioos:station:TCOON:518:1,2014-07-12T08:12:00Z,29.5150,-94.5133,0.967,1111122 
TCOON,ioos:station:TCOON:518:1,2014-07-12T09:12:00Z,29.5150,-94.5133,1.042,1111122 
TCOON,ioos:station:TCOON:518:1,2014-07-12T10:12:00Z,29.5150,-94.5133,1.157,1111122 
TCOON,ioos:station:TCOON:518:1,2014-07-12T11:12:00Z,29.5150,-94.5133,1.274,1111122 
TCOON,ioos:station:TCOON:518:1,2014-07-12T12:12:00Z,29.5150,-94.5133,1.363,1111122 
TCOON,ioos:station:TCOON:518:1,2014-07-12T13:12:00Z,29.5150,-94.5133,1.391,1111122 
TCOON,ioos:station:TCOON:518:1,2014-07-12T14:12:00Z,29.5150,-94.5133,1.386,1111122 
TCOON,ioos:station:TCOON:518:1,2014-07-12T15:12:00Z,29.5150,-94.5133,1.42,1111122 
TCOON,ioos:station:TCOON:518:1,2014-07-12T16:12:00Z,29.5150,-94.5133,1.416,1111122 
TCOON,ioos:station:TCOON:518:1,2014-07-12T17:12:00Z,29.5150,-94.5133,1.396,1111122 
TCOON,ioos:station:TCOON:518:1,2014-07-12T18:12:00Z,29.5150,-94.5133,1.399,1111122 
TCOON,ioos:station:TCOON:518:1,2014-07-12T19:12:00Z,29.5150,-94.5133,1.407,1111122 
TCOON,ioos:station:TCOON:518:1,2014-07-12T20:12:00Z,29.5150,-94.5133,1.381,1111122 
TCOON,ioos:station:TCOON:518:1,2014-07-12T21:12:00Z,29.5150,-94.5133,1.407,1111122 
TCOON,ioos:station:TCOON:518:1,2014-07-12T22:12:00Z,29.5150,-94.5133,1.42,1111122 
TCOON,ioos:station:TCOON:518:1,2014-07-12T23:12:00Z,29.5150,-94.5133,1.432,1111122 
TCOON,ioos:station:TCOON:518:1,2014-07-13T00:12:00Z,29.5150,-94.5133,1.411,1111122 